SAUDICOMSAT 2

Last updated on Tue Sep 22 2026 00:03:29 GMT+0000 (Coordinated Universal Time)

1 28370U 04025E 26263.55957225 .00000141 00000+0 48372-4 0 9993 2 28370 98.6650 278.5059 0054995 331.7222 28.0988 14.50026623173920
UTC large
Height (km)
Speed (km/s)
/
Latitude / Longitude
Inclination (degrees)
Orbital Period (minutes)
Azimuth
Elevation
Range (km)
Doppler Factor

Next 0 passes for location: London (51.5072 / 0.1276)

No passes found over London.
SAUDICOMSAT 2